User: anonymous   Login
Location: Cold Norton
(51.6667°N, 0.6667°E)
Time: 19:23:29
(UTC+00:00)
Language:

Cosmos 2297 Rocket - Orbit

View from above orbital plane
View from above orbital plane
View from above satellite
View from above satellite

Ground track
Ground track

The orbit is defined by the following mean orbital elements,

1 23405U          26022.48196617 +.00000000 +00000-0 +47323-4 0 00004
2 23405  70.9831  89.7040 0004846 253.0272 107.0320 14.15558697    09
Epoch (UTC): 22 January 2026 11:34:01
Eccentricity: 0.0004846
inclination: 70.9831°
perigee height: 837 km
apogee height: 844 km
right ascension of ascending node: 89.7040°
argument of perigee: 253.0272°
revolutions per day: 14.15558697
mean anomaly at epoch: 107.0320°

The dashed part of the orbit path shows where the satellite is in the earth's shadow,  

DLR